Home   Weather   Victoria   Past weeks

Flag for Seychelles Past Weather in Victoria, Seychelles — Yesterday and Last 2 Weeks

Now
84 °F

Broken clouds.


Feels Like: 92 °F
Forecast: 79 / 83 °F
Wind: 10 mph from North

Location: National Airport

Current Time: Feb 26, 2017 at 4:42:19 pm

Latest Report: Feb 26, 2017 at 4:00 pm


Visibility: N/A

Pressure: 29.77 "Hg

Humidity: 74%

Dew Point: 75 °F

Location of VictoriaLocation

Past Weather in Victoria — Graph

°F

Victoria Temperature Yesterday

Maximum temperature yesterday: 86 °F (at 11:00 am)
Minimum temperature yesterday: 75 °F (at 5:00 am)
Average temperature yesterday: 81 °F

High & Low Weather Summary for the Past Weeks

 TemperatureHumidityPressure
High88 °F (Feb 13, 3:00 pm)100% (Feb 17, 7:00 am)29.98 "Hg (Feb 17, 7:00 am)
Low75 °F (Feb 17, 6:42 am)66% (Feb 13, 3:00 pm)29.77 "Hg (Feb 11, 3:00 pm)
Average81 °F83%29.87 "Hg
* Reported Feb 11 3:00 pm — Feb 26 3:00 pm, Victoria, Weather by CustomWeather, © 2017

Note: Actual official high and low records may vary slightly from our data, if they occured in-between our weather recording intervals... More about our weather records

Advertising

Victoria Weather History for the Previous 24 Hours

Scroll right to see more
 ConditionsComfort  
Time TempWeatherWind HumidityBarometerVisibility
3:00 pm
Sun, Feb 26
86 °FBroken clouds.9 mph70%29.77 "HgN/A
2:00 pm84 °FBroken clouds.8 mph74%29.80 "HgN/A
1:00 pm84 °FScattered clouds.10 mph74%29.80 "HgN/A
12:00 pm82 °FScattered clouds.7 mph84%29.86 "HgN/A
11:00 am81 °FPartly sunny.5 mph89%29.89 "HgN/A
10:00 am81 °FSprinkles. Partly sunny.7 mph84%29.89 "HgN/A
9:00 am81 °FPartly sunny.5 mph79%29.89 "HgN/A
8:00 am79 °FPartly sunny.6 mph89%29.86 "HgN/A
7:00 am79 °FPartly sunny.3 mph94%29.83 "HgN/A
6:00 am79 °FSprinkles. Passing clouds.3 mph94%29.83 "HgN/A
5:00 am79 °FPassing clouds.2 mph94%29.80 "HgN/A
4:00 am79 °FThunderstorms. Passing clouds.1 mph94%29.80 "HgN/A
3:00 am79 °FSprinkles. Passing clouds.2 mph94%29.83 "HgN/A
2:00 am79 °FSprinkles. Passing clouds.2 mph94%29.83 "HgN/A
1:00 am79 °FSprinkles. Passing clouds.3 mph94%29.83 "HgN/A
12:00 am81 °FSprinkles. Passing clouds.5 mph94%29.86 "HgN/A
11:00 pm
Sat, Feb 25
81 °FPassing clouds.6 mph89%29.89 "HgN/A
10:00 pm79 °FPassing clouds.6 mph94%29.89 "HgN/A
9:00 pm81 °FSprinkles. Passing clouds.2 mph89%29.86 "HgN/A
8:00 pm81 °FThunderstorms. Passing clouds.8 mph84%29.86 "HgN/A
7:00 pm81 °FThunderstorms. Passing clouds.13 mph89%29.86 "HgN/A
6:00 pm82 °FRain showers. Partly sunny.3 mph84%29.83 "HgN/A
5:00 pm84 °FPartly sunny.8 mph79%29.80 "HgN/A
4:00 pm84 °FSprinkles. Scattered clouds.7 mph79%29.80 "HgN/A
Weather by CustomWeather, © 2017

See weather overviewHow to use our weather pages

LIVE ANNULAR SOLAR ECLIPSE – Watch the eclipse as it happens